{"data":{"norad_id":59032,"epoch":"2026-05-24T20:41:41.307360Z","epoch_age_seconds":87140,"freshness":"FRESH","line1":"1 59032U 24038K   26144.86228365  .00001203  00000+0  53258-4 0  9995","line2":"2 59032  43.0040 305.9940 0001106 267.9081  92.1644 15.27569119126420","mean_motion":15.27569119,"eccentricity":0.0001106,"inclination_deg":43.004,"raan_deg":305.994,"arg_perigee_deg":267.9081,"mean_anomaly_deg":92.1644,"bstar":5.3258e-5,"rev_number":12642,"period_min":94.267420183427,"perigee_km":482.3228270757,"apogee_km":483.84052864724,"semimajor_km":6861.2186778615,"source":"CELESTRAK","updated_at":"2026-05-25T13:38:18.823879Z"}}